• In Italy
  • List of Countries
  • For 7 days
  • Water Temperature
  • Satellite Maps
  • Weather Map
  • Weather Widgets
  • user-avatar
    Login

    Hourly Weather Idzhewan

    Today, 18 October, Wednesday

    Time Temperature Precipitation Wind Pressure Humidity
    00:00 +9°C° 0 mm 2 mps 696 mmHg 65%
    01:00 +8°C° 0 mm 2 mps 696 mmHg 66%
    02:00 +8°C° 0 mm 2 mps 696 mmHg 66%
    03:00 +9°C° 0 mm 3 mps 696 mmHg 67%
    04:00 +8°C° 0 mm 3 mps 696 mmHg 68%
    05:00 +8°C° 0 mm 3 mps 696 mmHg 68%
    06:00 +8°C° 0 mm 2 mps 696 mmHg 69%
    07:00 +10°C° 0 mm 2 mps 697 mmHg 62%
    08:00 +13°C° 0 mm 2 mps 697 mmHg 56%
    09:00 +16°C° 0 mm 1 mps 698 mmHg 49%
    10:00 +17°C° 0 mm 2 mps 698 mmHg 46%
    11:00 +18°C° 0 mm 2 mps 698 mmHg 43%
    12:00 +19°C° 0 mm 2 mps 698 mmHg 40%
    13:00 +19°C° 0 mm 2 mps 697 mmHg 41%
    14:00 +19°C° 0 mm 2 mps 697 mmHg 42%
    15:00 +19°C° 0 mm 2 mps 697 mmHg 44%
    16:00 +17°C° 0 mm 2 mps 697 mmHg 51%
    17:00 +15°C° 0 mm 1 mps 697 mmHg 58%
    18:00 +14°C° 0 mm 1 mps 697 mmHg 66%
    19:00 +13°C° 0 mm 1 mps 698 mmHg 68%
    20:00 +12°C° 0 mm 1 mps 698 mmHg 71%
    21:00 +12°C° 0 mm 1 mps 698 mmHg 74%
    22:00 +11°C° 0 mm 1 mps 698 mmHg 76%
    23:00 +11°C° 0 mm 1 mps 698 mmHg 78%

    Tomorrow, 19 October, Thursday

    Time Temperature Precipitation Wind Pressure Humidity
    00:00 +10°C° 0 mm 1 mps 698 mmHg 81%
    01:00 +10°C° 0 mm 1 mps 698 mmHg 82%
    02:00 +10°C° 0 mm 1 mps 698 mmHg 84%
    03:00 +8°C° 0 mm 0 mps 698 mmHg 86%
    04:00 +8°C° 0 mm 0 mps 698 mmHg 86%
    05:00 +9°C° 0 mm 1 mps 698 mmHg 87%
    06:00 +9°C° 0 mm 1 mps 698 mmHg 87%
    07:00 +10°C° 0 mm 1 mps 698 mmHg 80%
    08:00 +12°C° 0 mm 1 mps 698 mmHg 73%
    09:00 +14°C° 0 mm 1 mps 698 mmHg 66%
    10:00 +15°C° 0 mm 1 mps 698 mmHg 62%
    11:00 +16°C° 0 mm 1 mps 698 mmHg 57%
    12:00 +17°C° 0 mm 2 mps 698 mmHg 53%
    13:00 +17°C° 0 mm 2 mps 697 mmHg 53%
    14:00 +18°C° 0 mm 2 mps 697 mmHg 53%
    15:00 +18°C° 0 mm 2 mps 696 mmHg 53%
    16:00 +16°C° 0 mm 1 mps 696 mmHg 60%
    17:00 +15°C° 0 mm 1 mps 696 mmHg 68%
    18:00 +12°C° 0 mm 0 mps 696 mmHg 75%
    19:00 +12°C° 0 mm 0 mps 696 mmHg 76%
    20:00 +12°C° 0 mm 0 mps 696 mmHg 77%
    21:00 +11°C° 0 mm 0 mps 696 mmHg 77%
    22:00 +12°C° 0 mm 1 mps 696 mmHg 76%
    23:00 +12°C° 0 mm 1 mps 696 mmHg 75%

    Day after tomorrow, 20 October, Friday

    Time Temperature Precipitation Wind Pressure Humidity
    00:00 +12°C° 0 mm 1 mps 696 mmHg 74%
    01:00 +11°C° 0 mm 1 mps 695 mmHg 72%
    02:00 +11°C° 0 mm 1 mps 695 mmHg 70%
    03:00 +11°C° 0 mm 1 mps 695 mmHg 68%
    04:00 +11°C° 0 mm 1 mps 695 mmHg 65%
    05:00 +11°C° 0 mm 1 mps 695 mmHg 62%
    06:00 +10°C° 0 mm 2 mps 695 mmHg 60%
    07:00 +13°C° 0 mm 1 mps 695 mmHg 54%
    08:00 +15°C° 0 mm 1 mps 695 mmHg 48%
    09:00 +18°C° 0 mm 1 mps 696 mmHg 42%
    10:00 +19°C° 0 mm 1 mps 695 mmHg 39%
    11:00 +20°C° 0 mm 1 mps 695 mmHg 37%
    12:00 +20°C° 0 mm 2 mps 695 mmHg 35%
    13:00 +21°C° 0 mm 1 mps 695 mmHg 35%
    14:00 +21°C° 0 mm 1 mps 694 mmHg 36%
    15:00 +21°C° 0 mm 1 mps 694 mmHg 36%
    16:00 +19°C° 0 mm 1 mps 694 mmHg 43%
    17:00 +18°C° 0 mm 1 mps 694 mmHg 49%
    18:00 +14°C° 0 mm 0 mps 694 mmHg 55%
    19:00 +15°C° 0 mm 1 mps 694 mmHg 56%
    20:00 +14°C° 0 mm 1 mps 694 mmHg 56%
    21:00 +14°C° 0 mm 1 mps 695 mmHg 57%
    22:00 +14°C° 0 mm 1 mps 695 mmHg 58%
    23:00 +13°C° 0 mm 1 mps 694 mmHg 59%

    21 October, Saturday

    Time Temperature Precipitation Wind Pressure Humidity
    00:00 +13°C° 0 mm 1 mps 694 mmHg 60%
    01:00 +13°C° 0 mm 1 mps 694 mmHg 60%
    02:00 +12°C° 0 mm 1 mps 694 mmHg 61%
    03:00 +12°C° 0 mm 1 mps 694 mmHg 61%
    04:00 +12°C° 0 mm 1 mps 694 mmHg 61%
    05:00 +11°C° 0 mm 1 mps 694 mmHg 61%
    06:00 +11°C° 0 mm 1 mps 694 mmHg 61%
    07:00 +13°C° 0 mm 1 mps 694 mmHg 55%
    08:00 +15°C° 0 mm 1 mps 694 mmHg 49%
    09:00 +18°C° 0 mm 1 mps 695 mmHg 43%
    10:00 +19°C° 0 mm 1 mps 694 mmHg 41%
    11:00 +20°C° 0 mm 1 mps 694 mmHg 39%
    12:00 +20°C° 0 mm 2 mps 694 mmHg 36%
    13:00 +20°C° 0 mm 2 mps 693 mmHg 36%
    14:00 +20°C° 0 mm 2 mps 693 mmHg 37%
    15:00 +21°C° 0 mm 1 mps 693 mmHg 37%
    16:00 +19°C° 0 mm 1 mps 693 mmHg 43%
    17:00 +16°C° 0 mm 1 mps 692 mmHg 50%
    18:00 +15°C° 0 mm 1 mps 692 mmHg 56%
    19:00 +14°C° 0 mm 1 mps 693 mmHg 58%
    20:00 +14°C° 0 mm 1 mps 693 mmHg 60%
    21:00 +14°C° 0 mm 1 mps 693 mmHg 61%
    22:00 +13°C° 0 mm 1 mps 693 mmHg 62%
    23:00 +13°C° 0 mm 1 mps 693 mmHg 63%

    22 October, Sunday

    Time Temperature Precipitation Wind Pressure Humidity
    00:00 +12°C° 0 mm 1 mps 693 mmHg 64%
    01:00 +12°C° 0 mm 1 mps 693 mmHg 65%
    02:00 +12°C° 0 mm 1 mps 693 mmHg 65%
    03:00 +11°C° 0 mm 1 mps 693 mmHg 66%
    04:00 +11°C° 0 mm 1 mps 693 mmHg 66%
    05:00 +11°C° 0 mm 1 mps 693 mmHg 65%
    06:00 +10°C° 0 mm 1 mps 693 mmHg 65%
    07:00 +12°C° 0 mm 1 mps 693 mmHg 59%
    08:00 +14°C° 0 mm 1 mps 694 mmHg 53%
    09:00 +16°C° 0 mm 1 mps 694 mmHg 46%
    10:00 +16°C° 0 mm 1 mps 694 mmHg 44%
    11:00 +17°C° 0 mm 2 mps 694 mmHg 41%
    12:00 +18°C° 0 mm 2 mps 694 mmHg 39%
    13:00 +18°C° 0 mm 2 mps 693 mmHg 40%
    14:00 +18°C° 0 mm 2 mps 693 mmHg 41%
    15:00 +18°C° 0 mm 2 mps 693 mmHg 41%
    16:00 +17°C° 0 mm 2 mps 693 mmHg 48%
    17:00 +15°C° 0 mm 2 mps 693 mmHg 56%
    18:00 +13°C° 0 mm 1 mps 694 mmHg 63%
    19:00 +13°C° 0 mm 1 mps 694 mmHg 66%
    20:00 +12°C° 0 mm 1 mps 694 mmHg 69%
    21:00 +11°C° 0 mm 1 mps 695 mmHg 71%
    22:00 +11°C° 0 mm 1 mps 695 mmHg 74%
    23:00 +10°C° 0 mm 1 mps 695 mmHg 77%

    23 October, Monday

    Time Temperature Precipitation Wind Pressure Humidity
    00:00 +10°C° 0 mm 1 mps 695 mmHg 80%
    01:00 +10°C° 0 mm 1 mps 695 mmHg 83%
    02:00 +10°C° 0 mm 1 mps 695 mmHg 85%
    03:00 +10°C° 0 mm 1 mps 695 mmHg 87%
    04:00 +10°C° 0 mm 1 mps 695 mmHg 88%
    05:00 +9°C° 0 mm 2 mps 695 mmHg 89%
    06:00 +9°C° 0 mm 2 mps 696 mmHg 90%
    07:00 +9°C° 0 mm 2 mps 695 mmHg 86%
    08:00 +10°C° 0 mm 2 mps 695 mmHg 83%
    09:00 +10°C° 0 mm 2 mps 695 mmHg 80%
    10:00 +12°C° 0 mm 2 mps 695 mmHg 75%
    11:00 +13°C° 0 mm 2 mps 695 mmHg 70%
    12:00 +14°C° 0 mm 2 mps 694 mmHg 66%
    13:00 +14°C° 0 mm 2 mps 694 mmHg 66%
    14:00 +14°C° 0 mm 2 mps 693 mmHg 66%
    15:00 +14°C° 0 mm 2 mps 693 mmHg 67%
    16:00 +13°C° 0 mm 1 mps 693 mmHg 72%
    17:00 +12°C° 0 mm 1 mps 693 mmHg 77%
    18:00 +11°C° 0 mm 1 mps 694 mmHg 82%
    19:00 +11°C° 0 mm 1 mps 694 mmHg 81%
    20:00 +10°C° 0 mm 0 mps 694 mmHg 81%
    21:00 +10°C° 0 mm 0 mps 694 mmHg 80%
    22:00 +9°C° 0 mm 0 mps 694 mmHg 79%
    23:00 +9°C° 0 mm 0 mps 694 mmHg 78%
    Show more